[Date Prev][Date Next][Thread Prev][Thread Next][Date Index][Thread Index]

[jamsat-news:1434] jas2info  #213



========================   最新情報   ==============================

        Last updated :Fri.16FEB2001  12:50 (JST) #213
        
====================================================================
   
  1)アマチュア通信衛星情報、FOシリーズの軌道要素、テレメトリ、QSOの
   状況等をまとめてみました.
   
   FO−29の2001年2月16日(金)の10:14(JST)のパスでは
  JARLのホームページのとうりアナログ運用でした。今まで観測したテレメトリーと
  分析結果を掲載しておきます.

AS22227C1  Fri.16Feb2001
10:25-10:29(JST)
Freq. -435.786MHz

HI HI AE C7 88 55 00 D4 78 CE 09 42 51 27 84 60 93 91 B0 5D AB AB A9 A6 AB 
HI HI AE C7 88 55 00 D4 78 CE 09 42 4E 26 84 60 92 91 B0 7E AB AB A9 A6 AB 
HI HI AE C7 88 55 00 D4 78 CE 09 42 4C 25 83 60 93 91 B0 89 AB AA A8 A6 AB 
HI HI AE C7 88 55 00 D4 78 CE 09 42 4B 24 82 60 93 91 B0 R4 UA AA A8 A6 AB 
HI HI AE C7 88 55 00 D4 78 CE 09 42 4B 24 80 60 93 91 B0 70 AA AA A8 A6 AB 
HI HI AE C7 88 55 00 D4 78 CE 09 42 4C 25 7D 60 93 91 B0 88 AA AA A8 A6 AB 
HI HI AE C7 88 55 00 D4 78 CE 09 42 4F 27 7B 60 92 91 B0 86 AA AA A8 A6 AB 

AS22214C1     Thu.15FEB2001
11:18-11:23(JST)
Freq.435.791-.789MHz

HI HI AE C7 88 55 00 D4 84 A3 09 55 4D 9B 59 59 91 8F B0 6A AB A4 A8 AB A8 
HI HI AE C7 88 55 00 D4 84 A3 09 55 4D 9B 5A 5F 91 8F B0 80 AB A4 A8 AB A9 
HI HI AE C7 88 55 00 D4 84 A3 09 55 4E 9D 5D 59 93 91 B0 7A AB A4 A8 AB A8 
HI HI AE C7 88 55 00 D4 84 A3 09 55 4E 9D 5E 5F 91 8F B0 82 AB A4 A8 AB A8 
HI HI AE C7 88 55 00 D4 84 A3 09 55 4E 9E 5F 58 92 90 9E 58 AB A4 A8 AB A9 

AS22213C1     Thu.15FEB2001
9:22-9:39(JST)
Freq.435.805-.786MHz

HI HI AE C7 88 55 00 D4 17 86 09 4A 43 73 72 5F 91 8F 9D 7E AD A8 AC AF AA 
HI HI AE C7 88 55 00 D4 17 86 09 4A 42 79 70 5F 91 8F B0 DD AD A8 AC AE AA 
HI HI AE 07 88 55 00 D4 17 86 09 4A 42 7E 6D 5F 91 8F B0 74 AD A8 AC AE AA 
HI HI AE C7 88 55 00 D4 17 86 09 4A 42 83 6A 60 92 90 B0 73 AC A7 AK AE AA 
HI HI AE C7 88 55 00 D4 17 86 09 4A 42 87 67 54 92 90 9E 8A AC A7 AC AE AA 
HI HI AE C7 88 55 00 D4 17 86 09 4A 42 8B 65 5F 91 8F B0 6D AC A7 AC AE AA 
HI HI AE C7 88 55 00 D4 17 86 09 4A 42 8F 63 60 92 90 B0 7E AC A7 AC AE AA 
HI HI AE C7 88 55 00 D4 17 86 09 4A 42 92 62 5F 91 90 9D 75 AC A6 AB AD AA 
HI HI AE C7 88 55 00 D4 17 86 09 4A 41 94 60 5F 91 8F B0 82 AC A6 AB AD AA 
HI HI AE C7 88 55 00 D4 17 86 09 4A 40 98 5E 59 93 91 9F 8B AC A6 AB AD AA 
HI HI AE C7 88 55 00 D4 17 86 09 4A 3F 99 5A 60 91 8F B0 7F AC A6 AB AD AA 
HI HI AE C7 88 55 00 D4 17 86 09 4A 3E 9C 59 5B 92 90 9D 9C AB A6 AB AD AA 
HI HI AE 07 88 55 00 D4 17 86 09 4A 3D 9D 54 60 92 9O 9F 8B AB A6 AB AD AA 
HI HI AE C7 88 55 00 D4 17 86 09 4A 3B 9E 53 60 91 8F AF 75 AB A6 AB AD AA 
HI HI AE 07 88 55 00 D4 17 86 09 4A 3B 9F 55 5D 91 8F 9D 7F AB AE AB AD A9 
HI HI AE 07 88 55 00 D4 17 86 09 4A 3A A0 55 5E 92 91 9E 75 AB A5 AA AC A9 
HI HI AE 07 88 55 00 D4 17 86 09 4A 3A A0 53 60 92 90 B0 65 AB A5 AA AC A9 
HI HI AE C7 88 55 00 D4 17 86 09 4A 3B A1 53 60 91 8F AF 6F AB A5 AA AC AA 
HI HI AE C7 88 55 00 D4 17 86 09 4A 3D A2 54 5E 91 8F 9C 7F AB A5 AA AC A9 
HI HI AE 07 88 55 00 D4 17 86 09 4A 40 A2 51 5F 92 8F 9D 5C AA A5 AA AC A9 
HI HI AE 07 88 55 00 D4 17 86 09 4A 43 A2 51 5F 91 8F 9D 85 AB A5 AA AC A9 
HI HI AE 07 88 55 00 D4 17 86 09 4A 47 A2 52 5F 92 90 9D 73 AA A5 A9 AC A9 
HI HI AE 07 88 55 00 D4 17 86 09 4A 4C A1 52 5F 92 8F 9D 7C AA A5 A9 AC A9 
HI HI AE 07 88 55 00 D4 17 86 09 4A 52 A0 54 63 92 91 AF 67 AA A5 A9 AC A9 

AS2205C1   Wed.14FEB2001
19:50-19:59(JST)
Freq.435.796-.791MHz

HI HI AE 07 88 55 00 D4 B6 D5 09 48 54 8D 00 89 83 82 8D 94 AE A7 A6 AD AB
HI HI AE 07 88 55 00 D4 B6 D5 09 48 56 8C 00 88 83 82 8D 8D AE A7 A6 AD AB 
HI HI AE 07 88 55 00 D4 B6 D5 09 48 57 8B 00 89 83 82 8D 89 AE A7 A6 AC AB 
HI HI AE 07 88 55 00 D4 B6 D5 09 48 59 8A 00 89 82 82 8D 87 AI A7 A6 AD AB 
HI HI AE 07 88 55 00 D4 B6 D5 09 48 5A 8A 00 8A 82 82 8D 76 AE A7 A6 AD AB 
HI HI AE 07 88 55 00 D4 B6 D5 09 48 5C 8B 00 8A 82 81 8D 8E AF A8 A7 AD AB 
HI HI AE 07 88 55 00 D4 B6 D5 09 48 5D 8B 00 88 82 81 8D 7D AF A8 A7 AD AB 
HI HI AE 07 88 55 00 D4 B6 D5 09 48 60 8C 00 89 82 81 8C 83 AF A8 A7 AD AB 
HI HI AE 07 88 55 00 D4 B6 D5 09 48 64 8D 00 88 82 81 8C 87 AF A8 A7 AD AB
HI HI AE 07 88 55 00 D4 B6 D5 09 48 67 8D 00 8A 82 81 8C 77 AF A9 A8 AD AB 
HI HI AE 07 88 55 00 D4 B6 D5 09 48 6B 8E 00 89 82 81 8C 89 AF A9 A8 AD AB 

AS22187C1   13FEB2001
11:16-11:26(JST)
Freq.435.801-.790MHz
 
HI HI AE C7 88 55 00 D4 F4 BF O9 0A 74 7C 6D 60 92 90 B0 7E A6 AB AE AB AC 
HI HI AE C7 88 55 00 D4 F4 BF 09 0A 76 7D 6A 5F 91 8F B0 59 AA AA AD AB AC
HI HI AE C7 88 55 00 D4 F4 BF 09 0A 8B 78 6B 5F 91 8F B0 59 AA AA AD AB AC 
HI HI AE C7 88 55 00 D4 F4 BF 09 0A 94 8E 6E 5F 91 8F B0 83 AA AA AD AB AC 
HI HI AE C7 88 55 00 D4 F4 BF 09 0A 9C 87 6E 5F 91 8F B0 6F AA AA AD AB AC 
HI HI AE C7 88 55 00 D4 F4 BF 09 9A A1 6E 6D 5F 91 8F B0 68 AA AA AD AB AC 
HI HI AE C7 88 55 00 D4 F4 BF 09 0A A5 67 6D 5F 91 8F B0 73 AA A9 AD AB AC 
HI HI AE C7 88 55 00 D4 F4 BF 09 0A A7 5E 68 5F 91 8F B0 60 AA A9 AD AB AC 
HI HI AE C7 88 55 00 D4 F4 BF 09 0A A7 55 66 5F 91 8F B0 7F AA A9 AD AB AC 
HI HI AE C7 88 55 00 D4 F4 BF 09 0A A5 4A 6B 5F 91 8F B0 83 AA A9 AD AB AC 
HI HI AE C7 88 55 00 D4 F4 BF 09 0A A1 40 6B 5F 91 8F B0 77 AA A9 AD AB AC 
HI HI AE C7 88 55 00 D4 F4 BF 09 0A 9B 36 71 5F 91 8F B0 79 AA A8 AC AB AC 
HI HI AE C7 88 55 00 D4 F4 BF 09 0A 93 2C 75 60 91 8F B0 95 AA A8 AC AB AC 

AS22146C1  10FEB2001
10:27-10:40(JST)
FREQ435.803-.786MHz

HI HI AE C7 88 55 00 D4 E1 E3 09 59 3D 8B 8A 5F 91 8F B0 91 A9 A6 AF AF AA 
HI 5I AE C7 88 55 00 D4 E1 E3 09 59 38 81 87 5F 91 90 B0 83 A9 A6 AE AF AA 
HI HI AE C7 88 55 00 D4 E1 E3 09 59 35 76 86 55 91 8F B0 8E A9 A6 AE AF AA 
HI HI AE C7 88 55 00 D4 E1 E3 09 59 33 6C 84 60 92 90 B0 6E A9 A6 AE AE AA 
HI HI AE C7 88 55 00 D4 E1 E3 09 59 33 63 85 5F 91 8F B0 7C A9 A5 AE AE AA 
HI HI AE C7 88 55 00 D4 E1 E3 09 59 35 5C 83 5F 91 8E B0 8D A8 A5 AE AE AA 
HI HI AE C7 88 55 00 D4 E1 E3 09 59 37 58 85 44 93 91 B0 B7 A8 A5 AE AE AA 
HI HI AE C7 88 55 00 D4 E1 E3 09 59 3C 53 80 5F 92 90 B0 6A A8 A5 AD AE AA 
HI HI AE C7 88 55 00 D4 E1 E3 09 59E41 52 7A 5F 91 8F B0 67 A8 A5 AD AE AA 
HI HI AE C7 88 55 00 D4 E1 E3 09 59 47 53 77 5F 91 8F B0 89 A8 A4 AD AE AA 
HI HI AE C7 88 55 00 D4 E1 E3 09 59 4D 58 75 60 91 8F B0 61 A8 A4 AD AE AA 
HI HI AE C7 88 55 00 D4 E1 E3 09 59 55 5E 72 5F 91 8F B0 76 A8 A4 AD AE AA 
HI HI AE C7 88 55 00 D4 E1 E3 09 59 5C 66 71 5F 91 8F B0 47 A7 A4 AD AE AA 
HI HI AE C7 88 55 00 D4 E1 E3 09 59 62 70 6E 5F 91 8F B0 78 A7 A4 AD AD AA 
HI HI AE C7 88 55 00 D4 E1 E3 09 59 69 7B 6D 5F 91 8F B0 6D A7 A4 AD AD AA 
HI HI AE C7 88 55 00 D4 E1 E3 09 59 6E 87 6B 5F 91 8F B0 69 A7 A4 AD AD AA 
HI HI AE C7 88 55 00 D4 E1 E3 09 59 72 92 6A 5F 91 8F B0 88 A7 A3 AD AD AA

AS22133C1    9FEB2001
11:25-11:31(JST)
FREQ.435.799-.792MHz

HI HI AE C7 88 55 00 D4 20 EA 09 71    32 84 5F 92 8F B0 B9 AF AC AE AE AE
HI HI AE C7 88 55 00 D4 20 EA 09 71 94 33 84 5F 92 8F B0 B9 AF AC AE AE AE 
HI HI AE C7 88 55 00 D4 20 EA 09 71 96 37 87 5F 92 90 B0 BE AF AB AE AF AE 
HI HI AE C7 88 55 00 D4 20 EA 08 71 97 39 88 5F 92 90 B0 60 AF AB AD AE AE
HI HI AE C7 88 55 00 D4 20 EA 09 71 99 42 88 5F 92 90 B0 60 AF AB AD AE AE 
HI HI AE C7 88 55 00 D4 20 EA 09 71 9F 4B 88 5F 92 90 B0 6B AF AB AD AE AE 
HI HI AE C7 88 55 00 D4 20 EA 09 71 A6 55 86 60 92 90 B0 70 AE AA AD AE AE 
HI HI AE C7 88 55 00 D4 20 EA 09 71 AA 60 85 60 92 90 B0 86 AE AA AD AE AE 
HI HI AE C7 88 55 00 D4 20 EA 09 71 AD 6C 84 60 92 90 B0 96 AE AA AD AE AE   
  
 ------------------------ FO-29の軌道要素 ------------------------------        
 
  ■ 軌道要素1:「jamsat−keps:1072より         
          SB KEPS @ AMSAT  $ORB01039.N
          2Line Orbital Elements 01039.AMSAT

HR AMSAT ORBITAL ELEMENTS FOR AMATEUR SATELLITES IN NASA FORMAT
FROM WA5QGD FORT WORTH,TX February 8, 2001
SEND SUBSCRIBE/UNSUBSCRIBE TO majordomo@amsat.org ONLY
BID: ORB01039.N

 DECODE 2-LINE ELSETS WITH THE FOLLOWING KEY:
 1 AAAAAU 00  0  0 BBBBB.BBBBBBBB  .CCCCCCCC  00000-0  00000-0 0  DDDZ
 2 AAAAA EEE.EEEE FFF.FFFF GGGGGGG HHH.HHHH III.IIII JJ.JJJJJJJJKKKKKZ
 KEY: A-CATALOGNUM B-EPOCHTIME C-DECAY D-ELSETNUM E-INCLINATION F-RAAN
 G-ECCENTRICITY H-ARGPERIGEE I-MNANOM J-MNMOTION K-ORBITNUM Z-CHECKSUM

 FO-29
1 24278U 96046B   01038.69218209  .00000013  00000-0  51060-4 0  3913
2 24278  98.5667 281.3523 0350916 337.4408  21.1622 13.52758084221139

 ■ 軌道要素2:「jamsat−keps:1073」より                    
         SB KEPS @ AMSAT  $ORB01039.O
Orbital Elements  01039.OSCAR

HR AMSAT ORBITAL ELEMENTS FOR OSCAR SATELLITES
FROM WA5QGD FORT WORTH,TX February 8, 2001
SEND SUBSCRIBE/UNSUBSCRIBE TO majordomo@amsat.org ONLY
BID: ORB01039.O
TO ALL RADIO AMATEURS BT
 
 Satellite: FO-29
Catalog number: 24278
Epoch time:      01038.69218209
Element set:     391
Inclination:       98.5667 deg
RA of node:       281.3523 deg
Eccentricity:    0.0350916
Arg of perigee:   337.4408 deg
Mean anomaly:      21.1622 deg
Mean motion:   13.52758084 rev/day
Decay rate:        1.3e-07 rev/day^2
Epoch rev:           22113
Checksum:              295
  
-------------------  FO-29(JAS-2)のテレメトリに関する情報  ---------------------- 
 
2)上記テレメトリー2月16日のテレメトリ最終行を分析しておきます.
 
 AS22227C1  Fri.16Feb2001
 10:25-10:29(JST)
 Freq. -435.786MHz

HI HI AE C7 88 55 00 D4 78 CE 09 42 4F 27 7B 60 92 91 B0 86 AA AA A8 A6 AB 
 
テレメトリ   内 容       換算算値 単 位  
3C	磁気センサーZ軸=	38725.5	[nT]
3D	磁気センサX軸	=	19117.6	[nT]
4A	太陽電池発生電流=	 1205.9	[mA]
4B	B充放電電流	=	 -118.4	[mA]
4C	B端子電圧	=	   15.7	[V]
4D	B中間端子電圧	=	    7.0	[V]
5A	バス電圧	=	   17.3	[V]
5B	JTA送信電力	=	  772.9	[mW]
5C 	構体温度1	=	   15.9	[℃]
5D	構体温度2	=	   15.9	[℃]
6A	構体温度3	=	   16.6	[℃]
6B	構体温度4	=	   17.4	[℃]
6C	Bセル温度	=	   15.5	[℃]
   	
 ===========================  FO-29(ふじ3号)のQSO情報等 ======================
   
 3)[jamsat-bb:

 ===============================================================================
   4)JARL のホームページに運用予定が記載されていましたのでご紹介します.
       ( http://www.jarl.or.jp/Japanese/3_Fuji/new/uy.htm )

        ■ ふじ3号/FOー29/JAS-2 ■  
   
     *** 運用予定について ***

     2月1日 〜 4月2日 アナログ系運用

  *なお,運用予定は都合により変更することがありますので予めご了承願います。

